DW7110 Weather Reports


Display with metric or nautical units.
time (UTC)temp
F
wind
direction
speed
MPH
gust
MPH
rain 1hr
in
rain 24hr
in
rain mn
in
humidity
%
barometer
mb
20210616003144 69 59 0.0 3.0 0.00 0.00 0.00 56 1014.4
20210616001707 70 88 0.0 3.0 0.00 0.00 0.00 51 1014.3
20210616000131 70 88 0.0 4.0 0.00 0.00 0.00 54 1013.9
20210615234626 71 296 0.0 3.0 0.00 0.00 0.00 58 1013.6
20210615233118 72 297 0.0 0.0 0.00 0.00 0.00 58 1013.3
20210615231602 72 297 0.0 4.0 0.00 0.00 0.00 56 1013.2
20210615230056 73 55 0.0 2.0 0.00 0.00 0.00 55 1013.1
20210615224627 73 334 0.0 5.0 0.00 0.00 0.00 51 1012.8
20210615223200 73 274 3.0 14.0 0.00 0.00 0.00 49 1012.8
20210615221710 74 158 1.0 10.0 0.00 0.00 0.00 50 1013.0
20210615220121 74 64 0.0 6.0 0.00 0.00 0.00 52 1012.9
20210615214617 74 266 0.0 12.0 0.00 0.00 0.00 52 1013.0
20210615213110 75 277 0.0 7.0 0.00 0.00 0.00 53 1013.0
20210615211551 75 142 0.0 5.0 0.00 0.00 0.00 51 1013.0
20210615210047 75 77 2.0 8.0 0.00 0.00 0.00 47 1013.0
20210615204540 76 81 1.0 5.0 0.00 0.00 0.00 46 1012.9
20210615203047 77 89 0.0 7.0 0.00 0.00 0.00 45 1012.7
20210615201602 78 47 1.0 9.0 0.00 0.00 0.00 51 1012.7
20210615200050 79 96 0.0 2.0 0.00 0.00 0.00 45 1012.6
20210615194526 79 141 1.0 9.0 0.00 0.00 0.00 48 1012.6
20210615193110 78 355 1.0 5.0 0.00 0.00 0.00 45 1012.4
20210615191533 78 283 0.0 9.0 0.00 0.00 0.00 43 1012.6
20210615190129 78 340 3.0 12.0 0.00 0.00 0.00 40 1012.7
20210615184615 80 45 2.0 11.0 0.00 0.00 0.00 39 1012.7
20210615183053 80 343 0.0 7.0 0.00 0.00 0.00 40 1012.7
20210615181621 80 1 4.0 8.0 0.00 0.00 0.00 38 1012.9
20210615180044 80 49 0.0 7.0 0.00 0.00 0.00 39 1012.7
20210615174533 80 13 2.0 8.0 0.00 0.00 0.00 37 1013.0
20210615173022 81 48 0.0 5.0 0.00 0.00 0.00 40 1012.8
20210615171529 81 75 0.0 6.0 0.00 0.00 0.00 39 1012.7
20210615170019 80 72 1.0 4.0 0.00 0.00 0.00 42 1012.8
20210615164513 78 8 1.0 7.0 0.00 0.00 0.00 40 1012.9
20210615163011 78 319 2.0 8.0 0.00 0.00 0.00 55 1012.9
20210615161532 78 45 4.0 8.0 0.00 0.00 0.00 49 1012.8
20210615160024 80 44 0.0 7.0 0.00 0.00 0.00 57 1012.7
20210615154508 79 54 1.0 6.0 0.00 0.00 0.00 55 1012.8
20210615153003 78 70 3.0 6.0 0.00 0.00 0.00 62 1012.8
20210615151708 77 91 0.0 7.0 0.00 0.00 0.00 60 1012.6
20210615150119 76 6 0.0 3.0 0.00 0.00 0.00 59 1012.5
20210615144709 75 65 0.0 5.0 0.00 0.00 0.00 69 1012.5
20210615143206 74 250 0.0 3.0 0.00 0.00 0.00 73 1012.7
20210615141627 73 250 0.0 2.0 0.00 0.00 0.00 73 1012.7
20210615140123 71 249 0.0 1.0 0.00 0.00 0.00 79 1012.9
20210615134626 70 249 0.0 2.0 0.00 0.00 0.00 81 1013.0
20210615133102 68 249 0.0 1.0 0.00 0.00 0.00 81 1012.8
20210615131553 67 249 0.0 1.0 0.00 0.00 0.00 85 1012.9
20210615130050 66 250 0.0 0.0 0.00 0.00 0.00 85 1012.9
20210615124559 65 250 0.0 0.0 0.00 0.00 0.00 84 1012.7
20210615121639 64 250 0.0 0.0 0.00 0.00 0.00 86 1012.7
20210615120102 63 250 0.0 0.0 0.00 0.00 0.00 86 1012.7
20210615114557 63 249 0.0 0.0 0.00 0.00 0.00 85 1012.7
20210615113028 64 249 0.0 0.0 0.00 0.00 0.00 83 1012.3
20210615111527 65 249 0.0 0.0 0.00 0.00 0.00 82 1012.2
20210615110042 66 249 0.0 2.0 0.00 0.00 0.00 81 1012.0
20210615104530 66 249 0.0 2.0 0.00 0.00 0.00 80 1012.0
20210615103029 67 249 0.0 1.0 0.00 0.00 0.00 79 1012.0
20210615101613 67 249 1.0 3.0 0.00 0.00 0.00 78 1012.0
20210615100054 67 249 0.0 2.0 0.00 0.00 0.00 78 1012.0
20210615094543 67 249 0.0 3.0 0.00 0.00 0.00 77 1012.0
20210615093027 67 249 1.0 3.0 0.00 0.00 0.00 77 1012.0
20210615091530 68 249 2.0 4.0 0.00 0.00 0.00 76 1012.0
20210615090033 69 250 0.0 4.0 0.00 0.00 0.00 75 1012.0
20210615084553 69 249 3.0 5.0 0.00 0.00 0.00 73 1012.0
20210615083018 69 248 1.0 5.0 0.00 0.00 0.00 73 1012.1
20210615081545 68 287 2.0 5.0 0.00 0.00 0.00 75 1012.2
20210615080022 64 275 2.0 5.0 0.00 0.00 0.00 81 1012.3
20210615074513 64 276 0.0 4.0 0.00 0.00 0.00 79 1012.3
20210615073053 63 276 0.0 3.0 0.00 0.00 0.00 77 1012.5
20210615071518 64 276 0.0 3.0 0.00 0.00 0.00 77 1012.8
20210615070031 64 282 1.0 4.0 0.00 0.00 0.00 78 1012.8
20210615064503 65 288 0.0 1.0 0.00 0.00 0.00 77 1012.8
20210615063013 65 288 0.0 2.0 0.00 0.00 0.00 75 1012.9
20210615061720 65 289 0.0 0.0 0.00 0.00 0.00 72 1013.2
20210615060129 65 289 0.0 0.0 0.00 0.00 0.00 69 1013.4
20210615054643 65 289 0.0 0.0 0.00 0.00 0.00 70 1013.5
20210615053119 66 289 0.0 3.0 0.00 0.00 0.00 69 1013.6
20210615051710 66 290 0.0 0.0 0.00 0.00 0.00 66 1013.6
20210615050119 67 290 0.0 0.0 0.00 0.00 0.00 64 1013.6
20210615044603 67 290 0.0 0.0 0.00 0.00 0.00 63 1013.6
20210615043109 68 290 0.0 0.0 0.00 0.00 0.00 63 1013.6
20210615041644 69 290 0.0 3.0 0.00 0.00 0.00 62 1013.5
20210615040131 69 290 0.0 1.0 0.00 0.00 0.00 57 1013.4
20210615034602 70 290 0.0 0.0 0.00 0.00 0.00 56 1013.6
20210615033055 70 290 0.0 0.0 0.00 0.00 0.00 55 1013.6
20210615031632 71 290 0.0 0.0 0.00 0.00 0.00 56 1013.6
20210615030113 71 290 0.0 3.0 0.00 0.00 0.00 52 1013.5
20210615024623 71 290 0.0 0.0 0.00 0.00 0.00 51 1013.5
20210615023047 71 290 0.0 0.0 0.00 0.00 0.00 52 1013.2
20210615021704 72 290 0.0 0.0 0.00 0.00 0.00 52 1013.0
20210615020037 72 290 0.0 0.0 0.00 0.00 0.00 55 1012.8
20210615014601 72 290 0.0 1.0 0.00 0.00 0.00 57 1012.4
20210615013101 73 290 0.0 1.0 0.00 0.00 0.00 59 1012.4
20210615011600 73 290 0.0 1.0 0.00 0.00 0.00 60 1012.2
20210615010112 74 290 0.0 1.0 0.00 0.00 0.00 59 1012.2
20210615004538 74 290 0.0 1.0 0.00 0.00 0.00 63 1012.0